sat.trackr.live / text

‹ back to catalog

STARLINK-35307

NORAD 66013 · 2025-232J

PAYLOAD ACTIVE UNKNOWN

§ Identity

Operator
Country
US
Launch date
2025-10-16
Launch site
AFETR
Launch vehicle
Mass (kg)
RCS (m²)

Purposes: comms

External: N2YO · Heavens-Above · Gunter

§ Orbital elements

Epoch: 2026-09-20T00:23:00.674592Z

Period
93.85 min
Inclination
53.1585°
Eccentricity
0.0001059
Mean motion
15.34399822 rev/d
Perigee alt
462.0 km
Apogee alt
463.4 km
Semi-major
6,840.8 km
B*
3.8841e-4
RAAN
278.0332°
Arg perigee
95.3543°
Mean anomaly
264.7581°
Rev number
5,323

§ Raw data

STARLINK-353071 66013U 25232J   26263.01598003  .00012769  00000+0  38841-3 0  99962 66013  53.1585 278.0332 0001059  95.3543 264.7581 15.34399822 53236

JSON: /api/v1/satellites/66013 · /tle

For live sub-satellite position, see the globe view (requires WebGL).

§ Visibility from observer

Set your observer location to see the next 7 days of passes ≥ 10°. The values pass through the URL so the page stays shareable.

No JS? Fill the form by hand. The geolocation button needs JavaScript.